Regional Weather Roundup
Issued by NWS

Home | Current Version | Previous Version | Graphics & Text | Print | Product List | Glossary On
Versions: 1 2 3 4 5 6 7 8 9 10 11 12 13 14 15 16 17 18 19 20 21 22 23 24 25 26 27 28 29 30 31 32 33 34 35 36 37 38 39 40 41 42 43 44 45 46 47 48 49 50
000
ASUS43 KMKX 291921
RWRWI

WISCONSIN REGIONAL WEATHER ROUNDUP
NATIONAL WEATHER SERVICE MILWAUKEE/SULLIVAN WI
200 PM CDT FRI MAY 29 2015

NOTE: "FAIR" INDICATES FEW OR NO CLOUDS BELOW 12,000 FEET WITH NO
SIGNIFICANT WEATHER AND/OR OBSTRUCTIONS TO VISIBILITY.

WIZ001-002-006>008-014>016-023>028-292000-
NORTHWEST WISCONSIN

CITY           SKY/WX    TMP DP  RH WIND       PRES   REMARKS
SUPERIOR ARPT  CLOUDY    66  58  74 N8        29.91S
ASHLAND        CLOUDY    70  61  73 NW7       29.88S
HAYWARD        LGT RAIN  67  62  84 NW3       29.90F
SIREN          RAIN      65  63  94 N3        29.91S
CUMBERLAND     LGT RAIN  66  63  88 CALM      29.90F
RICE LAKE      DRIZZLE   69  63  82 CALM      29.91S
CHETEK         LGT RAIN  69  65  88 CALM      29.90S
LADYSMITH      CLOUDY    70  64  82 SW3       29.92F
EAU CLAIRE     CLOUDY    71  63  75 SW5       29.89F
MENOMONIE      CLOUDY    72  66  80 S6        29.90F
NEW RICHMOND   LGT RAIN  70  65  82 SW8       29.90S
OSCEOLA        HVY RAIN  65  65 100 CALM      29.93R VSB 3/4
$$

WIZ003>005-009-010-017-018-292000-
NORTH CENTRAL WISCONSIN

CITY           SKY/WX    TMP DP  RH WIND       PRES   REMARKS
MANITOWISH WTR CLOUDY    66  64  90 W6        29.90S
ARBOR VITAE    CLOUDY    65  63  93 W5        29.91R
WOODRUFF       CLOUDY    65  63  93 W5        29.91R
RHINELANDER    CLOUDY    72  61  68 SW14      29.92S
EAGLE RIVER    CLOUDY    69  62  78 W9        29.89F
LAND O LAKES   CLOUDY    69  62  78 SW10G17   29.90S
PHILLIPS       CLOUDY    66  64  91 SW5       29.91S
TOMAHAWK       CLOUDY    69  61  76 SW5       29.93R
MEDFORD        CLOUDY    69  64  82 SW6       29.92F
MERRILL        CLOUDY    73  64  73 W9        29.92S
$$

WIZ029-030-035-036-043>047-292000-
CENTRAL WISCONSIN

CITY           SKY/WX    TMP DP  RH WIND       PRES   REMARKS
WAUSAU         PTSUNNY   76  62  62 SW13      29.90F
MOSINEE        PTSUNNY   75  64  69 SW9       29.93S
MARSHFIELD     CLOUDY    76  63  64 S7        29.90F
STEVENS POINT  PTSUNNY   77  58  52 SW17      29.92S
WAUPACA        PTSUNNY   79  64  60 S8        29.92F HX  80
WAUTOMA        PTSUNNY   80  65  60 SW9       29.92F HX  82
WISC RAPIDS    PTSUNNY   78  61  55 S12       29.93S HX  80
CAMP DOUGLAS   CLOUDY    77  68  73 S8        29.90F
$$

WIZ011>013-019>022-031-037>040-048>050-292000-
NORTHEAST WISCONSIN

CITY           SKY/WX    TMP DP  RH WIND       PRES   REMARKS
ANTIGO         PTSUNNY   74  64  69 SW15G22   29.92F
SHAWANO        PTSUNNY   77  63  62 SW7       29.91F
OCONTO         CLOUDY    76  66  69 S8        29.90F
STURGEON BAY   CLOUDY    70  63  78 S12G17    29.94F
GREEN BAY      PTSUNNY   77  65  66 SW10      29.92F
MANITOWOC      PTSUNNY   68  60  75 SE8       29.94F THUNDER
APPLETON       PTSUNNY   77  63  61 SW10      29.94F
CLINTONVILLE   PTSUNNY   77  63  61 S12       29.91F
OSHKOSH        CLOUDY    79  66  64 VRB6      29.92F HX  81
$$

WIZ032>034-041-042-053>061-292000-
SOUTHWEST WISCONSIN

CITY           SKY/WX    TMP DP  RH WIND       PRES   REMARKS
LA CROSSE      CLOUDY    78  65  63 S7        29.88F HX  80
SPARTA         CLOUDY    78  61  54 S6        29.90F HX  80
VIROQUA        CLOUDY    76  60  57 S10       29.93F
BOSCOBEL       CLOUDY    79  62  56 CALM      29.91F HX  80
PRAIRIE DU CHI CLOUDY    78  61  56 S9        29.90F
PLATTEVILLE    CLOUDY    77  68  74 SW10      29.93F
$$

WIZ056-057-062-063-064-067-068-292000-
SOUTH CENTRAL WISCONSIN

CITY           SKY/WX    TMP DP  RH WIND       PRES   REMARKS
REEDSBURG      CLOUDY    75  67  77 S7        29.92F
BARABOO/DELLS  CLOUDY    75  65  69 SW5       29.92F
LONE ROCK      LGT RAIN  74  66  76 CALM      29.91F
MINERAL POINT  CLOUDY    77  68  73 SW5       29.93F
MADISON        CLOUDY    75  65  70 S13       29.92F
MIDDLETON      CLOUDY    78  65  64 S9        29.92F HX  80
WATERTOWN      LGT RAIN N/A N/A N/A SW9       29.94F
MONROE         CLOUDY    72  66  83 S13       29.94F
JANESVILLE     LGT RAIN  72  70  94 SW7       29.93F
$$

WIZ051-052-058>065-066-070>072-292000-
SOUTHEAST WISCONSIN

CITY           SKY/WX    TMP DP  RH WIND       PRES   REMARKS
MILWAUKEE      PTSUNNY   77  68  73 SE9       29.94F
WAUKESHA       PTSUNNY   73  63  68 S12       29.95F
MILWAUKEE/TIMM PTSUNNY   79  57  47 S14       29.95F HX  80
RACINE         PTSUNNY   74  64  71 S12       29.97F
BURLINGTON     PTSUNNY   76  65  70 S12G17    29.94F
KENOSHA        PTSUNNY   80  64  58 S13       29.95F HX  82
FOND DU LAC    LGT RAIN  78  66  66 S13       29.92F HX  80
SHEBOYGAN      CLOUDY    75  66  73 S14       29.95F
WEST BEND      HVY RAIN  70  63  78 S3        29.95S
JUNEAU         CLOUDY    74  66  75 S14       29.95S
$$

LSZ147-162-292000-
LAKE SUPERIOR

STATION/POSITION TIME  TEMP    WIND        PRES    WAVE
                       AIR SEA DIR/SP/G            HT/PER
                 (UTC) (F)     (DEG/KT/KT) (MB)    (FT/S)
W MID LAKE BUOY  1850   41 37  280/ 12/ 14   N/A     1
DEVILS ISLAND    1900   45     240/  9/ 11   N/A
PORT WING        1800   47     300/  6/  8   N/A
SAXON HARBOR     1900           CALM  / 12   N/A
$$

LMZ867-665-643>646-292000-
LAKE MICHIGAN

STATION/POSITION TIME  TEMP    WIND        PRES    WAVE
                       AIR SEA DIR/SP/G            HT/PER
                 (UTC) (F)     (DEG/KT/KT) (MB)    (FT/S)
CHAMBERS ISLAND  1800   70     140/  5/ 10   N/A
N MID LAKE BUOY  1850   42 37  190/  8/ 10   N/A     1/ 3
NORTHPORT PIER   1800   55     160/  7/ 18   N/A
SISTER BAY       1818   68     190/ 15/ 20   N/A
ALGOMA LAKESHORE 1823          160/  3/  4   N/A
KEWAUNEE LAKESHO 1800   50     170/ 10/ 12   N/A
SHEBOYGAN LAKESH 1900   54     170/ 18/ 20   N/A
PORT WASHINGTON  1800   63     190/  4/  8   N/A
ATWATER BUOY     1900   57     150/ 14/ 14   N/A
MILWAUKEE LAKESH 1900          140/ 14/ 15   N/A
S MID LAKE BUOY  1850   48 38  210/  8/ 10   N/A     0
KENOSHA   LAKESH 1900   61     170/ 11/ 14   N/A
$$

TC  - TEMPERATURE IN CELSIUS
VSB - VISIBILITY IN STATUTE MILES
WCI - WIND CHILL INDEX
HX  - HEAT INDEX




USA.gov is the U.S. government's official web portal to all federal, state and local government web resources and services.